Location: C.E.K. Mees Observatory
(42.7003°N, 77.4088°W)
Time: 18:35:21
(UTC-04:00)

Vanguard 3 - Pass Details

Date: 01 July 2018
Orbit: 508 x 3264 km, 33.3° (Epoch: 17 July)

Event Time Altitude Azimuth Distance (km) Brightness Sun altitude
Rises 02:15:18 0° 239° (WSW) 2,593 - -22.7°
Reaches altitude 10° 02:17:40 10° 223° (SW) 1,737 - -22.6°
Maximum altitude 02:20:40 22° 169° (S) 1,251 - -22.4°
Exits shadow 02:23:49 12° 121° (ESE) 1,973 9.0 -22.2°
Drops below altitude 10° 02:24:17 10° 117° (ESE) 2,138 9.2 -22.2°
Sets 02:27:35 0° 104° (ESE) 3,398 10.4 -22.0°
